Flag for Madagascar Weather past 2 weeks in Antananarivo, Madagascar

Now
54 °F

Passing clouds.


Feels Like: 54 °F
Forecast: 52 / 67 °F
Wind: No wind

Location: Antananarivo / Ivato

Current Time: Aug 1, 2015 at 7:19:23 AM

Latest Report: Aug 1, 2015 at 7:00 AM


Visibility: N/A

Pressure: 30.21 "Hg (25.89 "Hg at 1287m altitude)

Humidity: 100%

Dew point: 54 °F

Location of AntananarivoLocation

Historic Weather in Antananarivo — Graph

°F

Antananarivo temperature yesterday

Maximum temperature yesterday: 81 °F (at 2:00 PM)
Minimum temperature yesterday: 52 °F (at 5:00 AM)
Average temperature yesterday: 64 °F

Past Weeks' High & Low Weather Summary

 TemperatureHumidityPressure
High81 °F (Jul 31, 2:00 PM)100% (Jul 17, 6:00 AM)30.39 "Hg (Jul 17, 6:00 AM)
Low43 °F (Jul 22, 4:30 AM)39% (Jul 26, 1:30 PM)30.12 "Hg (Jul 31, 2:30 PM)
Average60 °F87%30.28 "Hg
* Reported Jul 17 6:00 AM — Aug 1 6:00 AM, Antananarivo, Weather by CustomWeather, © 2015

Note: Actual official high and low records may vary slightly from our data, if they occured in-between our weather recording intervals... More about our weather records

Advertising

Antananarivo weather history for previous 24 hours

 ConditionsComfort  
Time TempWeatherWind HumidityBarometerVisibility
6:00 AM
Sat, Aug 1
50 °FPassing clouds.No wind100%30.18 "HgN/A
5:30 AM50 °FPassing clouds.No wind100%30.18 "HgN/A
5:00 AM50 °FPassing clouds.No wind100%30.18 "HgN/A
4:00 AM52 °FPassing clouds.No wind100%30.18 "HgN/A
3:30 AM52 °FPassing clouds.No wind100%30.18 "HgN/A
3:00 AM52 °FPassing clouds.No wind100%30.18 "HgN/A
2:30 AM54 °FPassing clouds.No wind94%30.18 "HgN/A
2:00 AM54 °FPassing clouds.3 mph100%30.18 "HgN/A
1:30 AM54 °FPassing clouds.No wind94%30.18 "HgN/A
1:00 AM54 °FPassing clouds.No wind94%30.18 "HgN/A
12:30 AM54 °FPassing clouds.3 mph94%30.21 "HgN/A
12:00 AM57 °FPassing clouds.No wind88%30.21 "HgN/A
11:30 PM
Fri, Jul 31
57 °FPassing clouds.No wind88%30.21 "HgN/A
11:00 PM57 °FPassing clouds.No wind88%30.21 "HgN/A
10:30 PM59 °FPassing clouds.3 mph82%30.18 "HgN/A
10:00 PM61 °FPassing clouds.2 mph77%30.18 "HgN/A
9:30 PM63 °FPassing clouds.1 mph73%30.18 "HgN/A
9:00 PM63 °FPassing clouds.5 mph73%30.18 "HgN/A
8:30 PM63 °FPassing clouds.3 mph73%30.18 "HgN/A
8:00 PM63 °FPassing clouds.5 mph73%30.18 "HgN/A
7:30 PM66 °FPassing clouds.No wind68%30.15 "HgN/A
7:00 PM66 °FPassing clouds.1 mph68%30.15 "HgN/A
6:30 PM66 °FPassing clouds.3 mph64%30.15 "HgN/A
6:00 PM70 °FPassing clouds.3 mph57%30.12 "HgN/A
5:30 PM73 °FPassing clouds.3 mph50%30.12 "HgN/A
5:00 PM77 °FPassing clouds.8 mph44%30.12 "HgN/A
4:30 PM79 °FPassing clouds.10 mph42%30.12 "HgN/A
4:00 PM79 °FPassing clouds.9 mph45%30.12 "HgN/A
3:30 PM81 °FPassing clouds.7 mph42%30.12 "HgN/A
3:00 PM81 °FPassing clouds.3 mph42%30.12 "HgN/A
2:30 PM79 °FPassing clouds.7 mph54%30.12 "HgN/A
2:00 PM81 °FPassing clouds.2 mph48%30.15 "HgN/A
1:30 PM75 °FPassing clouds.2 mph54%30.15 "HgN/A
1:00 PM77 °FPassing clouds.3 mph54%30.18 "HgN/A
12:30 PM75 °FPassing clouds.6 mph57%30.18 "HgN/A
12:00 PM75 °FPassing clouds.5 mph57%30.18 "HgN/A
11:30 AM75 °FPassing clouds.3 mph61%30.21 "HgN/A
11:00 AM75 °FSunny.No wind61%30.21 "Hg10 mi
10:30 AM72 °FSunny.No wind69%30.24 "Hg10 mi
10:00 AM70 °FSunny.No wind78%30.24 "Hg10 mi
9:30 AM66 °FSunny.No wind88%30.24 "Hg10 mi
9:00 AM59 °FPassing clouds.No wind100%30.24 "Hg5 mi
8:30 AM57 °FScattered clouds.No wind100%30.24 "Hg5 mi
8:00 AM55 °FFog.No wind100%30.24 "Hg1 mi
7:30 AM54 °FFog.No wind100%30.21 "Hg0 mi
Weather by CustomWeather, © 2015

See weather overviewHow to use our weather pages